Location: Newark
(36.1358°N, 115.1208°W)
Time: 21:19:06
(UTC+00:00)

Vanguard 1 Rocket - Pass Details

Date: 19 February 2020
Orbit: 650 x 4226 km, 34.3° (Epoch: 09 April)

Event Time Altitude Azimuth Distance (km) Brightness Sun altitude
Rises 13:41:17 0° 272° (W) 3,191 - -9.3°
Reaches altitude 10° 13:43:48 10° 269° (W) 2,121 - -8.8°
Exits shadow 13:43:54 11° 269° (W) 2,072 8.6 -8.7°
Maximum altitude 13:48:14 66° 188° (S) 711 6.9 -7.9°
Drops below altitude 10° 13:52:58 10° 106° (ESE) 2,248 11.2 -6.9°
Sets 13:55:42 0° 103° (ESE) 3,406 13.1 -6.4°
